Regional Weather Roundup
Issued by NWS

Home | Current Version | Previous Version | Graphics & Text | Print | Product List | Glossary On
Versions: 1 2 3 4 5 6 7 8 9 10 11 12 13 14 15 16 17 18 19 20 21 22 23 24 25 26 27
000
ASUS45 KSLC 240110
RWRUT

UTAH REGIONAL WEATHER ROUNDUP
NATIONAL WEATHER SERVICE SALT LAKE CITY UT
700 PM MDT TUE MAY 23 2017

UTZ001>011-023>025-240200-

NORTHERN UTAH

CITY           SKY/WX    TMP DP  RH WIND       PRES   REMARKS
BRIGHAM CITY   SUNNY     77  27  16 SE5       30.05F
HILL AFB       SUNNY     75  32  20 CALM      30.07F
LOGAN          SUNNY     77  39  25 CALM      30.04F
OGDEN          SUNNY     77  25  14 CALM      30.05F
SALT LAKE CITY MOSUNNY   81  37  20 N8        30.03F
TOOELE VALLEY  SUNNY     75  43  31 N3        30.06S
WENDOVER       SUNNY     82  37  20 E8        30.01F
HEBER CITY     SUNNY     73  27  17 NW9       30.10S
WEST JORDAN    SUNNY     79  50  36 N7        30.06F

$$

UTZ011>015-024>027-240200-

CENTRAL/NORTHEAST UTAH

CITY           SKY/WX    TMP DP  RH WIND       PRES   REMARKS
PROVO AIRPORT  SUNNY     77  36  22 NW6       30.06F
MOAB/CANYONLAN SUNNY     76  26  15 SE10      30.04
DELTA          SUNNY     79  28  15 SW3       30.05F
PRICE          SUNNY     75  31  19 NW14G23   30.09F
RICHFIELD      SUNNY     77  23  13 CALM      30.11F
ROOSEVELT      SUNNY     72  32  23 E6        30.11F
VERNAL         SUNNY     70  35  27 S6        30.09F

$$

UTZ013>016-019>022-027-240200-

SOUTHERN UTAH

CITY           SKY/WX    TMP DP  RH WIND       PRES   REMARKS
BRYCE CANYON   SUNNY     71  19  14 NW17      30.24F
CEDAR CITY     SUNNY     80  26  13 VRB5      30.09F
MILFORD        SUNNY     83  25  12 N7        30.05F
ST GEORGE      CLEAR     93  29  10 S8        29.90F
HANKSVILLE     PTSUNNY   81  30  16 SE6       30.03F
KANAB          SUNNY     84  23  10 W10       30.08F
BLANDING       MOSUNNY   71  29  21 N10       30.20F

$$

REGIONAL REPORTS     COLORADO/ARIZONA

CITY           SKY/WX    TMP DP  RH WIND       PRES   REMARKS
CRAIG, CO      SUNNY     61  31  32 SW5       30.15F
GRAND JUNCTION SUNNY     72  28  19 SE5       30.07F
RIFLE, CO      CLOUDY    68  24  19 NW8       30.13F
MONTROSE, CO   SUNNY     68  19  15 NW7       30.15F
CORTEZ, CO     SUNNY     70  19  14 N15G24    30.12S
COLORADO CITY    N/A     86  30  13 NW8G16    30.09F
PAGE, AZ       SUNNY     83  33  16 NE8       30.01F
GRAND CANYON   SUNNY     75  13   9 VRB7G18   30.20S
KINGMAN, AZ    SUNNY     93  27   9 N9        29.95F
FLAGSTAFF, AZ  SUNNY     74  21  13 NE6       30.19F

$$

REGIONAL REPORTS    NEVADA/IDAHO/WYOMING

CITY           SKY/WX    TMP DP  RH WIND       PRES   REMARKS
LAS VEGAS, NV  MOSUNNY   99  17   5 VRB5      29.82F HX  92
ELY, NY        SUNNY     81  31  16 NW12      30.13F
ELKO, NV       MOSUNNY   81  32  17 W8G21     30.08F
POCATELLO, ID  MOSUNNY   76  29  17 SW15      30.03F
BURLEY, ID       N/A     78  40  25 W9        30.00
FORT BRIDGER,    N/A     68  31  24 NW17G24   30.20S
EVANSTON, WY   SUNNY     66  37  34 W14       30.19S
ROCK SPRINGS,  SUNNY     67  32  27 SW12      30.13F
KEMMERER, WY     N/A     63  34  34 W18G26    30.18F

$$




USA.gov is the U.S. government's official web portal to all federal, state and local government web resources and services.